Regional Weather Roundup
Issued by NWS

Home | Current Version | Previous Version | Graphics & Text | Print | Product List | Glossary On
Versions: 1 2 3 4 5 6 7 8 9 10 11 12 13 14 15 16 17 18 19 20 21 22 23 24 25 26 27 28 29 30 31 32 33 34 35 36 37 38 39 40 41 42 43 44 45 46 47 48 49
000
ASUS45 KSLC 271410
RWRUT

UTAH REGIONAL WEATHER ROUNDUP
NATIONAL WEATHER SERVICE SALT LAKE CITY UT
800 AM MDT WED AUG 27 2014

UTZ001>011-023>025-271500-

NORTHERN UTAH

CITY           SKY/WX    TMP DP  RH WIND       PRES   REMARKS
HILL AFB       PTSUNNY   58  50  75 E5        30.23S
LOGAN          LGT RAIN  56  53  90 CALM      30.23R
OGDEN          PTSUNNY   60  51  72 SE3       30.21S
PROVO AIRPORT  PTSUNNY   59  54  82 SE6       30.24R
SALT LAKE CITY PTSUNNY   60  56  86 SE5       30.21R
VERNAL         CLOUDY    59  55  87 CALM      30.25R
WENDOVER       SUNNY     57  48  72 NE3       30.22R
HEBER CITY     CLOUDY    54  50  87 CALM      30.26R
WEST JORDAN    MOSUNNY   61  61 100 CALM      30.23R

$$

UTZ012>022-026-027-271500-

SOUTHERN UTAH

CITY           SKY/WX    TMP DP  RH WIND       PRES   REMARKS
BRYCE CANYON   SUNNY     41  39  93 CALM      30.38R
CEDAR CITY     SUNNY     49  46  90 CALM      30.28R
MILFORD        MOSUNNY   53  49  86 CALM      30.26R
MOAB/CYNLANDS  SUNNY     61  58  90 S3        30.21R
PRICE          CLOUDY    57  51  80 CALM      30.26R
ST GEORGE      PTSUNNY   63  50  63 NE5       30.20R

$$

REGIONAL REPORTS     COLORADO/ARIZONA

CITY           SKY/WX    TMP DP  RH WIND       PRES   REMARKS
CRAIG, CO      LGT RAIN  54  52  93 CALM      30.31R
GRAND JUNCTION LGT RAIN  57  55  93 SE12      30.23F
RIFLE          PTSUNNY   56  54  93 CALM      30.28R
MONTROSE       LGT RAIN  55  53  93 CALM      30.34R
CORTEZ         CLOUDY    54  53  97 E7        30.35R
PAGE, AZ       SUNNY     62  50  64 CALM      30.26R
GRAND CANYON   MOSUNNY   50  48  93 SE3       30.36R
KINGMAN        SUNNY     69  59  70 SE13      30.14R
FLAGSTAFF      FOG       52  50  93 NE6       30.41R VSB 1

$$

REGIONAL REPORTS    NEVADA/IDAHO/WYOMING

CITY           SKY/WX    TMP DP  RH WIND       PRES   REMARKS
LAS VEGAS, NV  CLEAR     75  46  35 CALM      30.05R
ELY            MOCLDY    42  40  92 S13       30.32R
ELKO           CLEAR     49  43  80 E3        30.27R
POCATELLO, ID  SUNNY     53  50  89 CALM      30.22R
BURLEY         SUNNY     54  49  83 S5        30.20R
EVANSTON, WY   CLOUDY    50  45  83 S5        30.33R
ROCK SPRINGS   LGT RAIN  50  49  96 SE9       30.31R

$$


USA.gov is the U.S. government's official web portal to all federal, state and local government web resources and services.